TimeCST,TemperatureF,Dew PointF,Humidity,Sea Level PressureIn,VisibilityMPH,Wind Direction,Wind SpeedMPH,Gust SpeedMPH,PrecipitationIn,Events,Conditions,WindDirDegrees,DateUTC
12:09 AM,26.6,21.2,80,29.75,6.0,NW,18.4,28.8,N/A,,Haze,310,2012-01-28 06:09:00
12:54 AM,25.0,19.9,81,29.80,10.0,NW,17.3,-,N/A,,Clear,310,2012-01-28 06:54:00
1:40 AM,24.8,19.4,80,29.76,10.0,NW,19.6,25.3,N/A,,Mostly Cloudy,310,2012-01-28 07:40:00
1:50 AM,23.0,17.6,80,29.77,10.0,WNW,13.8,26.5,N/A,,Scattered Clouds,300,2012-01-28 07:50:00
1:54 AM,23.0,18.0,81,29.82,10.0,WNW,13.8,-,N/A,,Scattered Clouds,300,2012-01-28 07:54:00
2:54 AM,21.0,15.1,78,29.83,10.0,WNW,13.8,19.6,N/A,,Clear,290,2012-01-28 08:54:00
3:54 AM,19.0,12.9,77,29.83,10.0,WNW,10.4,-,N/A,,Clear,290,2012-01-28 09:54:00
4:54 AM,18.0,12.0,78,29.84,10.0,West,11.5,-,N/A,,Clear,270,2012-01-28 10:54:00
5:54 AM,17.1,12.0,81,29.85,10.0,West,10.4,-,N/A,,Clear,280,2012-01-28 11:54:00
6:38 AM,17.6,12.2,79,29.80,10.0,West,11.5,-,N/A,,Mostly Cloudy,280,2012-01-28 12:38:00
6:54 AM,18.0,12.0,78,29.87,10.0,West,11.5,-,N/A,,Overcast,280,2012-01-28 12:54:00
7:54 AM,19.0,12.0,74,29.88,10.0,WNW,15.0,23.0,N/A,,Overcast,290,2012-01-28 13:54:00
8:54 AM,19.9,12.9,74,29.89,9.0,WNW,16.1,25.3,N/A,,Overcast,290,2012-01-28 14:54:00
9:29 AM,19.4,12.2,74,29.84,6.0,West,15.0,24.2,0.00,Snow,Light Snow,280,2012-01-28 15:29:00
9:43 AM,19.4,12.2,74,29.85,5.0,West,16.1,24.2,0.00,Snow,Light Snow,280,2012-01-28 15:43:00
10:44 AM,21.2,14.0,74,29.86,10.0,West,15.0,23.0,N/A,,Overcast,280,2012-01-28 16:44:00
10:54 AM,23.0,14.0,68,29.91,10.0,West,13.8,25.3,N/A,,Overcast,280,2012-01-28 16:54:00
11:54 AM,24.1,14.0,65,29.91,10.0,West,16.1,-,N/A,,Overcast,280,2012-01-28 17:54:00
12:54 PM,25.0,14.0,63,29.91,10.0,West,17.3,26.5,N/A,,Partly Cloudy,280,2012-01-28 18:54:00
1:37 PM,24.8,12.2,59,29.85,10.0,West,18.4,25.3,N/A,,Mostly Cloudy,260,2012-01-28 19:37:00
1:47 PM,24.8,12.2,59,29.86,10.0,West,18.4,26.5,N/A,,Mostly Cloudy,270,2012-01-28 19:47:00
1:54 PM,24.1,12.9,62,29.92,10.0,West,17.3,27.6,N/A,,Overcast,280,2012-01-28 19:54:00
2:32 PM,24.8,12.2,59,29.87,10.0,West,18.4,26.5,N/A,,Mostly Cloudy,260,2012-01-28 20:32:00
2:54 PM,24.1,12.9,62,29.94,10.0,West,16.1,28.8,N/A,,Overcast,280,2012-01-28 20:54:00
3:54 PM,24.1,12.0,60,29.95,10.0,West,15.0,24.2,N/A,,Overcast,280,2012-01-28 21:54:00
4:54 PM,23.0,12.0,63,29.97,10.0,West,12.7,-,N/A,,Overcast,270,2012-01-28 22:54:00
5:54 PM,24.1,12.0,60,29.98,10.0,West,16.1,24.2,N/A,,Overcast,270,2012-01-28 23:54:00
6:54 PM,23.0,12.0,63,29.99,10.0,West,15.0,-,N/A,,Overcast,280,2012-01-29 00:54:00
7:54 PM,21.0,12.0,68,29.99,10.0,West,6.9,-,N/A,,Mostly Cloudy,260,2012-01-29 01:54:00
8:54 PM,19.0,10.9,71,29.98,10.0,West,5.8,-,N/A,,Mostly Cloudy,260,2012-01-29 02:54:00
9:54 PM,16.0,9.0,74,29.97,10.0,West,3.5,-,N/A,,Clear,270,2012-01-29 03:54:00
10:54 PM,14.0,9.0,80,29.97,10.0,SW,3.5,-,N/A,,Clear,220,2012-01-29 04:54:00
11:54 PM,10.9,6.1,81,29.97,10.0,Calm,Calm,-,N/A,,Clear,0,2012-01-29 05:54:00